User: anonymous   Login
Location: Unspecified
(0.0000°N, 0.0000°E)
Time: 22:39:02
(UTC+00:00)
Language:

Sedsat-1 - Orbit

View from above orbital plane
View from above orbital plane
View from above satellite
View from above satellite

Ground track
Ground track

The orbit data is extracted from the following two-line orbital elements,

1 25509U 98061B   18343.89847802  .00000153  00000-0  19617-4 0  9997
2 25509  31.4308 237.9520 0346418  67.4070 296.2821 14.30356423 51614
Epoch (UTC): 09 December 2018 21:33:48
Eccentricity: 0.0346418
inclination: 31.4308°
perigee height: 542 km
apogee height: 1039 km
right ascension of ascending node: 237.9520°
argument of perigee: 67.4070°
revolutions per day: 14.30356423
mean anomaly at epoch: 296.2821°
orbit number at epoch: 5161

The dashed part of the orbit path shows where the satellite is in the earth's shadow,  

DLR